DW7780 Weather Reports


time (UTC)temp
C
wind
direction
speed
KPH
gust
KPH
rain 1hr
cm
rain 24hr
cm
rain mn
cm
humidity
%
barometer
mb
20260831160034 22 0 0.0 0.0 0.00 0.36 0.03 85 1020.2
20260831154558 22 0 0.0 1.6 0.00 0.36 0.03 87 1020.2
20260831153032 22 0 0.0 3.2 0.00 0.36 0.03 89 1020.2
20260831151534 21 0 0.0 0.0 0.00 0.36 0.03 91 1020.3
20260831150038 21 0 0.0 1.6 0.00 0.36 0.03 93 1020.6
20260831144542 21 0 0.0 0.0 0.00 0.36 0.03 94 1020.5
20260831143031 20 0 0.0 0.0 0.00 0.36 0.03 95 1020.6
20260831141537 20 0 0.0 0.0 0.00 0.36 0.03 96 1020.5
20260831140036 20 0 0.0 0.0 0.00 0.36 0.03 97 1020.4
20260831134535 20 0 0.0 0.0 0.00 0.36 0.03 97 1020.4
20260831133104 20 0 0.0 3.2 0.00 0.36 0.03 97 1020.4
20260831131530 19 0 0.0 0.0 0.00 0.36 0.03 98 1020.4
20260831130031 19 0 0.0 0.0 0.00 0.36 0.03 97 1020.4
20260831124531 19 0 0.0 0.0 0.00 0.36 0.03 97 1020.4
20260831123033 19 0 0.0 0.0 0.00 0.36 0.03 98 1020.3
20260831121531 19 0 0.0 0.0 0.00 0.36 0.03 97 1020.3
20260831120038 18 0 0.0 0.0 0.00 0.36 0.03 98 1020.3
20260831114538 18 0 0.0 0.0 0.00 0.36 0.03 97 1019.9
20260831113034 18 0 0.0 0.0 0.00 0.36 0.03 97 1019.8
20260831111530 18 0 0.0 0.0 0.00 0.36 0.03 97 1019.4
20260831110041 18 0 0.0 0.0 0.00 0.36 0.03 97 1019.4
20260831104536 18 0 0.0 0.0 0.00 0.36 0.03 97 1019.6
20260831103034 18 0 0.0 0.0 0.00 0.36 0.03 97 1019.6
20260831101541 18 0 0.0 0.0 0.00 0.36 0.03 97 1019.5
20260831100034 19 0 0.0 0.0 0.00 0.36 0.03 97 1019.2
20260831094534 19 0 0.0 0.0 0.00 0.36 0.03 97 1019.1
20260831093038 19 0 0.0 0.0 0.03 0.36 0.03 97 1019.0
20260831091551 19 0 0.0 0.0 0.03 0.36 0.03 97 1018.8
20260831090034 19 0 0.0 0.0 0.03 0.36 0.03 97 1018.9
20260831084533 19 0 0.0 0.0 0.03 0.36 0.03 97 1018.9
20260831083034 19 0 0.0 0.0 0.00 0.33 0.00 97 1019.0
20260831081538 19 0 0.0 0.0 0.00 0.33 0.00 97 1019.0
20260831080055 20 0 0.0 0.0 0.00 0.33 0.00 97 1019.0
20260831074534 20 0 0.0 0.0 0.00 0.33 0.00 97 1018.9
20260831073057 20 0 0.0 0.0 0.00 0.33 0.00 97 1019.0
20260831071537 20 0 0.0 0.0 0.00 0.33 0.00 97 1019.1
20260831070036 20 0 0.0 0.0 0.00 0.33 0.00 97 1018.9
20260831064534 20 0 0.0 0.0 0.00 0.33 0.00 97 1018.9
20260831063036 20 0 0.0 0.0 0.00 0.33 0.00 97 1018.9
20260831061532 20 0 0.0 0.0 0.00 0.33 0.00 97 1018.9
20260831060031 20 0 0.0 0.0 0.00 0.33 0.00 96 1018.5
20260831054532 20 0 0.0 0.0 0.00 0.33 0.00 97 1018.7
20260831053037 21 0 0.0 0.0 0.00 0.33 0.00 97 1018.5
20260831051537 21 0 0.0 0.0 0.00 0.33 0.00 97 1018.9
20260831050035 21 0 0.0 0.0 0.00 0.33 0.00 97 1019.2
20260831044546 21 0 0.0 0.0 0.00 0.33 0.00 97 1019.2
20260831043034 21 0 0.0 0.0 0.00 0.33 0.00 97 1019.4
20260831041540 21 0 0.0 0.0 0.00 0.33 0.00 96 1019.3
20260831040032 21 0 0.0 0.0 0.15 0.33 0.00 96 1019.5
20260831034535 21 0 0.0 0.0 0.15 0.33 0.33 96 1019.3
20260831033038 21 0 0.0 0.0 0.15 0.33 0.33 96 1019.4
20260831031536 21 0 0.0 0.0 0.15 0.33 0.33 96 1019.3
20260831030033 22 0 0.0 0.0 0.00 0.18 0.18 96 1019.5
20260831024532 22 0 0.0 0.0 0.00 0.18 0.18 96 1019.1
20260831023033 22 0 0.0 1.6 0.00 0.18 0.18 96 1019.5
20260831021545 22 0 0.0 0.0 0.08 0.18 0.18 95 1019.3
20260831020031 22 0 0.0 3.2 0.18 0.18 0.18 95 1019.1
20260831014532 22 0 0.0 0.0 0.18 0.18 0.18 93 1019.0
20260831013042 22 0 0.0 0.0 0.18 0.18 0.18 92 1019.2
20260831011543 22 0 0.0 0.0 0.10 0.10 0.10 91 1019.4
20260831010044 22 0 0.0 0.0 0.00 0.00 0.00 90 1018.9
20260831004534 22 0 0.0 0.0 0.00 0.00 0.00 90 1018.8
20260831003034 22 0 0.0 0.0 0.00 0.00 0.00 89 1018.7
20260831001538 22 0 0.0 0.0 0.00 0.00 0.00 88 1018.5
20260831000035 23 0 0.0 0.0 0.00 0.00 0.00 88 1018.4
20260830234534 23 0 0.0 0.0 0.00 0.00 0.00 87 1018.4
20260830233034 23 0 0.0 0.0 0.00 0.00 0.00 85 1018.6
20260830231532 23 0 0.0 0.0 0.00 0.00 0.00 84 1018.6
20260830230034 24 0 0.0 0.0 0.00 0.00 0.00 83 1018.4
20260830224533 25 0 0.0 0.0 0.00 0.00 0.00 82 1018.4
20260830223035 25 0 0.0 1.6 0.00 0.00 0.00 82 1018.2
20260830221534 25 0 0.0 0.0 0.00 0.00 0.00 81 1018.1
20260830220037 25 0 0.0 0.0 0.00 0.00 0.00 82 1018.3
20260830214533 26 0 0.0 1.6 0.00 0.00 0.00 81 1018.1
20260830213034 26 0 0.0 0.0 0.00 0.00 0.00 79 1018.2
20260830211532 26 0 0.0 4.8 0.00 0.00 0.00 77 1018.2
20260830210034 26 260 0.0 6.4 0.00 0.00 0.00 76 1018.2
20260830204535 26 0 0.0 6.4 0.00 0.00 0.00 77 1018.1
20260830203034 26 0 0.0 3.2 0.00 0.00 0.00 81 1018.3
20260830201530 26 0 0.0 8.0 0.00 0.00 0.00 78 1018.5
20260830200033 27 168 1.6 9.7 0.00 0.00 0.00 74 1018.5
20260830194533 27 306 1.6 6.4 0.00 0.00 0.00 76 1018.7
20260830193034 26 0 0.0 4.8 0.00 0.00 0.00 77 1018.9
20260830191534 26 0 0.0 1.6 0.00 0.00 0.00 80 1019.0
20260830190035 26 0 0.0 1.6 0.00 0.00 0.00 77 1019.2
20260830184535 26 0 0.0 9.7 0.00 0.00 0.00 76 1019.4
20260830183036 26 0 0.0 6.4 0.00 0.00 0.00 78 1019.4
20260830181532 26 275 0.0 11.3 0.00 0.00 0.00 78 1019.7
20260830180038 25 0 0.0 6.4 0.00 0.00 0.00 78 1019.8
20260830174550 25 0 0.0 16.1 0.00 0.00 0.00 79 1020.0
20260830173036 25 0 0.0 11.3 0.00 0.00 0.00 79 1020.2
20260830171539 25 291 0.0 11.3 0.00 0.00 0.00 82 1020.3
20260830170036 23 0 0.0 1.6 0.00 0.00 0.00 85 1020.4
20260830164531 23 0 0.0 0.0 0.00 0.00 0.00 83 1020.8
20260830163045 24 0 0.0 4.8 0.00 0.00 0.00 81 1020.9
20260830161542 24 0 0.0 6.4 0.00 0.00 0.00 83 1020.9